Belize, Belize

2:18 PM CST on November 20, 2017 (GMT -0600)
Philip S W Goldson International

Weather History for MZBZ - October, 2012

Change the Weather History Date:

Thursday, October 11, 2012

  Actual Average Record
Temperature  
Mean Temperature 82 °F -  
Max Temperature 87 °F 86 °F 90 °F (2015)
Min Temperature 77 °F 72 °F 71 °F (1996)
Cooling Degree Days 17    
Growing Degree Days 32 (Base 50)    
Moisture  
Dew Point 78 °F    
Average Humidity 85    
Maximum Humidity 100    
Minimum Humidity 69    
Precipitation  
Precipitation 0.55 in 0.30 in - ()
Sea Level Pressure  
Sea Level Pressure 29.95 in    
Wind  
Wind Speed 6 mph ()    
Max Wind Speed 15 mph    
Max Gust Speed -    
Visibility 6.6 miles    
Events Rain , Thunderstorm    
Averages and records for this station are not official NWS values.
T = Trace of Precipitation, MM = Missing Value Source: Averaged Metar Reports

Daily Weather History Graph

Daily Weather History Graph

Search for Another Location

Airport or City:

Trip Planner

Search our weather history database for the weather conditions in past years. The results will help you decide how hot, cold, wet, or windy it might be!

Date:

Astronomy

Oct. 11, 2012 Rise Set
Actual Time 5:45 AM CST 5:33 PM CST
Civil Twilight 5:23 AM CST 5:55 PM CST
Nautical Twilight 4:58 AM CST 6:20 PM CST
Astronomical Twilight 4:33 AM CST 6:46 PM CST
Moon 1:57 AM CST (10/11) 2:41 PM CST (10/11)
Length of Visible Light 12h 31m
Length of Day
11h 48m
Waning Crescent, 18% of the Moon is Illuminated
Oct 11
Waning Crescent
Oct 15
New
Oct 21
First Quarter
Oct 29
Full
Nov 6
Last Quarter

Hourly Weather History & Observations

Time (CST) Temp. Heat Index Dew Point Humidity Pressure Visibility Wind Dir Wind Speed Gust Speed Precip Events Conditions
12:00 AM 78 °F - 77 °F 94% 29.93 in 7 mi NE 5.8 mph - - Rain Light Rain
3:00 AM 79 °F - 77 °F 91% 29.90 in 12 mi Calm Calm - -   Partly Cloudy
5:00 AM 78.8 °F - 77.0 °F 94% 29.89 in 6.2 mi East 5.8 mph - N/A   Scattered Clouds
6:00 AM 78.8 °F - 77.0 °F 94% 29.92 in 6.2 mi Calm Calm - N/A   Mostly Cloudy
7:00 AM 80.6 °F 87.1 °F 77.0 °F 89% 29.92 in 6.2 mi Calm Calm - N/A   Mostly Cloudy
8:00 AM 84.2 °F 96.1 °F 78.8 °F 84% 29.95 in 6.2 mi East 9.2 mph - N/A   Mostly Cloudy
9:00 AM 85 °F - 78 °F 73% 29.99 in 12 mi East 9.2 mph - -   Partly Cloudy
9:00 AM 84.2 °F 94.1 °F 77.0 °F 79% 29.98 in 6.2 mi East 9.2 mph - N/A   Mostly Cloudy
9:40 AM 84.2 °F 94.1 °F 77.0 °F 79% 30.00 in 0.5 mi East 6.9 mph - N/A Rain Heavy Rain Showers
10:00 AM 78.8 °F - 77.0 °F 94% 29.98 in 5.0 mi North 3.5 mph - N/A Rain , Thunderstorm Light Thunderstorms and Rain
10:15 AM 78.8 °F - 77.0 °F 94% 29.98 in 6.2 mi Calm Calm - N/A   Mostly Cloudy
11:00 AM 84.2 °F 96.1 °F 78.8 °F 84% 29.97 in 6.2 mi East 12.7 mph - N/A   Mostly Cloudy
12:00 PM 87 °F - 78 °F 69% 29.95 in 12 mi East 13.8 mph - -   Partly Cloudy
12:00 PM 87.8 °F 102.5 °F 78.8 °F 75% 29.95 in 6.2 mi East 13.8 mph - N/A   Mostly Cloudy
1:00 PM 86.0 °F 96.9 °F 77.0 °F 74% 29.93 in 6.2 mi East 12.7 mph - N/A   Mostly Cloudy
2:00 PM 86.0 °F 96.9 °F 77.0 °F 74% 29.91 in 6.2 mi East 11.5 mph - N/A   Mostly Cloudy
3:00 PM 86 °F - 77 °F 69% 29.91 in 12 mi East 10.4 mph - -   Partly Cloudy
3:00 PM 86.0 °F 96.9 °F 77.0 °F 74% 29.90 in 6.2 mi East 10.4 mph - N/A   Mostly Cloudy
4:00 PM 86.0 °F 96.9 °F 77.0 °F 74% 29.90 in 6.2 mi East 8.1 mph - N/A   Mostly Cloudy
5:00 PM 84.2 °F 94.1 °F 77.0 °F 79% 29.90 in 6.2 mi East 6.9 mph - N/A   Mostly Cloudy
6:00 PM 83 °F - 77 °F 77% 29.93 in 3 mi NE 5.8 mph - - Thunderstorm Thunderstorm
6:00 PM 82.4 °F 90.9 °F 77.0 °F 84% 29.92 in 3.1 mi NE 5.8 mph - N/A Thunderstorm Thunderstorm
6:45 PM 77.0 °F - 77.0 °F 100% 29.95 in 2.2 mi ENE 15.0 mph - N/A Rain Rain Showers
7:00 PM 78.8 °F - 77.0 °F 94% 29.95 in 6.2 mi NE 5.8 mph - N/A   Mostly Cloudy
8:00 PM 78.8 °F - 78.8 °F 100% 29.98 in 6.2 mi East 4.6 mph - N/A   Mostly Cloudy
9:00 PM 80 °F - 78 °F 91% 29.99 in 12 mi East 3.5 mph - -   Partly Cloudy
9:00 PM 80.6 °F 88.1 °F 78.8 °F 94% 29.98 in 6.2 mi East 3.5 mph - N/A   Scattered Clouds
10:00 PM 80.6 °F 88.1 °F 78.8 °F 94% 29.99 in 6.2 mi Calm Calm - N/A   Scattered Clouds
11:00 PM 82.4 °F 92.4 °F 78.8 °F 89% 29.98 in 6.2 mi East 4.6 mph - N/A   Scattered Clouds